THORAD AGENA D DEB, 44564

Orbit data source: Space-Track

THORAD AGENA D DEB, 44564 is space debris in SSO originally from a launch on Wed, 08 Apr 1970 UTC launched from the Air Force Western Test Range (AFWTR). Debris objects in space refer to the collection of defunct objects orbiting the Earth. Examples of debris include non-operational satellites, rocket bodies, and fragments generated from explosions, collisions, or faulty payload assembly.

Loading next visibility...
Identifier
44564, 1970-025TM
Orbit
SSO
Country
Flag of USUS
Related business
Manufacturer
Unknown
Mission
Spacecraft
Bus & Motor
Unknown
Mass
Unknown
Launch date (UTC)
1970-04-08 (56 years ago)
Launch vehicle
Unknown
Launch site
Air Force Western Test Range (AFWTR)
Object type
Payload
Rocket body
Debris
Shape & HBR
Unknown shape, 0.1 m
Radar Cross Section
Small (<0.1 m²)

Expand to show TLE details & history
Last TLE update: 17 hours ago

TLE from 17 hours ago
0 THORAD AGENA D DEB
1 44564U 70025TM  26036.85773554  .00005571  00000-0  25899-2 0  9991
2 44564  99.9933  14.6437 0070323 162.0954 227.9132 14.19759282626642
Epoch: 2026-02-05T20:35Z
TLE epoch observation values (Epoch: 2026-02-05T20:35:08.350Z)
Latitude
28.97299°
Longitude
-75.7144°
Altitude
863.868 km
Speed
7.406 km/s
True Right ascension
00h 36m 17s
True Declination
28° 49' 47"
Sunlit
Object was in daylight at epoch
Visualization orbit readout
Latitude
Unknown
Longitude
Unknown
Altitude
Unknown
Speed
Unknown
Apparent Right ascension
Unknown
Apparent Declination
Unknown
Sunlit
N/A
Visualization observer readout
Local Sidereal Time
15:50:27
Azimuth
Unknown
Elevation
Unknown
Doppler factor
Unknown
Orbital elements
Apogee altitude
874.035 km
Perigee altitude
772.748 km
Semi-major axis
7,201.529 km
Eccentricity
0.00703
Inclination
99.9933°
RAAN
14.6437°
Arg. of periapsis
162.0954°
True anomaly
227.31867°
Mean anomaly
227.9132°
Eccentric anomaly
227.61559°
Mean motion
3.55145 °/min
Orbital period
101.37 mins
BSTAR
0.0025899

Documentation

Showing up to 5 results
|